Weather in Kingscote

Australia     35°39′33″S   137°37′29″E
temp.,
°C
wind,
m/s
gust,
m/s
humid.,
%
clouds,
%
prec.,
mm/h
press.,
hPa
HPBL,
m
28 february, sun
sun2801:30+12s239323 0.0 101252
04:30+12s229334 0.0 101237
07:30+14s258588 0.0 1012146
10:30+19sse446078 0.0 1014761
13:30+23s54419 0.0 10131120
16:30+22s664416 0.0 1013977
19:30+16sse576922 0.0 1014652
22:30+12sse378922 0.0 1015184
1 march, mon
mon101:30+12sse359039 0.0 1014110
04:30+12sse349049 0.0 101490
07:30+14sse488589 0.0 1016354
10:30+20sse685275 0.0 1017791
13:30+22sse78480 0.0 1017998
16:30+20sse78550 0.0 10171068
19:30+16se6107418 0.0 1018912
22:30+14se6107358 0.0 1020863
2 march, tue
tue201:30+12se5118138 0.0 1019490
04:30+11se5118353 0.0 1019524
07:30+12ese5107680 0.0 1020715
10:30+16ese795690 0.0 1022935
13:30+18ese784660 0.0 1021949
16:30+18se784845 0.0 1019885
19:30+14se6106680 0.0 1020733
22:30+12se5128354 0.0 1021456
3 march, wed
wed301:30+12se5128365 0.0 1020519
04:30+11se4108583 0.0 1020363
07:30+11ese498874 0.0 1021310
10:30+17ese685440 0.0 1023761
13:30+20ese67430 0.0 1022853
16:30+19se67470 0.0 1021738
19:30+15se59660 0.0 1021571
22:30+11se410880 0.0 1022250
4 march, thu
thu401:30+11se49900 0.0 1021217
04:30+11se37920 0.0 1020163
07:30+11se34900 0.0 102180
10:30+19se56530 0.0 1022804
13:30+22se55400 0.0 1021990
16:30+20se66470 0.0 1019772
19:30+15sse59680 0.0 1020643
22:30+12sse48900 0.0 1021184